NOAA 16 DEB

Satellite information

Favourite Embed

Satellite Type and Status

DEBRISIN ORBIT

Key statistics

Satellite NOAA 16 DEB at a glance.

Uptime

9215

Days in orbit

Revolutions

≈ 14.3

Per day

Orbit

SSO

Sun Synchronous Orbit

Inclination

98.7

Latest

Satellite identification and parameters

Extended collection of information and parameters for NOAA 16 DEB.

Object identification

Identified? True

Debris? True

Object name: NOAA 16 DEB

International designator: 2000-055SD

Object number (NORAD): 42385

Object ID (CCSDS): 42385

Country: UNITED STATES OF AMERICA (US)

Current information (Y/N): Y

RCS size: SMALL

Orbital parameters

Period: 100.44 minutes

Inclination: 98.6591 deg

SMA: 7157.541 km

Apoapsis: 783.761 km

Periapsis: 775.052 km

RAAN: 60.0097 deg

Eccentricy: 0.00060837

Argument of periapsis: 52.3093 deg

Mean anomaly: 307.8642 deg

Mean motion: 14.33695647 rev/day

Mean motion (dot): 0.00008476 rev/day2

B* drag term: 0.0030665992 1/REarth

Two-line elements (TLE)

Creation date: Dec. 12, 2025, 3:16 a.m.

Reference frame: TEME

Reference center: EARTH

Epoch: Dec. 11, 2025, 3:34 p.m. UTC

TLE line 0: 0 NOAA 16 DEB

TLE line 1: 1 42385U 00055SD 25345.64865692 .00008476 00000-0 30666-2 0 9995

TLE line 2: 2 42385 98.6591 60.0097 0006084 52.3093 307.8642 14.33695647500748

Live tracking on map

Real-time ground track for satellite NOAA 16 DEB.

In-orbit conjunctions

A list of the most updated potential collisions computed for object NOAA 16 DEB.

Target Orbit TCA Probability of collision Miss distance Type
COSMOS 1110 LEO 2025-11-11 08:02:06 0.0001642786 554.0 (m) PAYLOAD
CZ-6A DEB LEO 2025-01-03 21:03:12 0.0003235872 517.0 (m) DEBRIS

Associated space launch

The NOAA K, L and M POES satellites begin the fifth generation of improved environmental monitoring in support of NOAA missions. The instrument payload has significant improvements and additions/deletions. The instrument changes have effected the spacecraft subsystems and data formats.

NOAA 16 DEB was lifted into orbit during the mission ‘Titan II SLV | NOAA 16’, on board a Titan II SLV space rocket.

The launch took place on Sept. 21, 2000, 10:22 a.m. from Space Launch Complex 4W.

For more information about the launch, click the button.

Launch to space Titan II SLV | NOAA 16
Titan II SLV | NOAA 16

Agency: N/A

Status: Launch Successful

Launch date: Sept. 21, 2000, 10:22 a.m. UTC

Rocket: Titan II SLV

Launch pad: Space Launch Complex 4W

Location: Vandenberg SFB, CA, USA

...

Latest news about this satellite

There are no fresh news available about this satellite. Check back as we update our databases every day.


Newsletter sign-up

Weekly statistics, charts and insights to help you stay on top of the space industry.